EJU64AM LIRF-EBBR

Flight info

Callsign EJU64AM
Flight time 1h 49m
Altitude 36000
Route NEMBO DCT GOVGO DCT AOSTA DCT ORSUD DCT MOLUS DCT GILIR DCT PENDU DCT IXILU DCT GIVOR/N0425F320 DCT SORAL DCT IBERA N853 DIK Y37 BATTY
Aircraft A319/M-SDE3FGHIRWY/LB1

Departure

Time 2026-05-05 11:18
Airport Rome–Fiumicino Leonardo da Vinci International Airport (LIRF)

Arrival

Time 2026-05-05 13:08
Airport Brussels Airport (EBBR)
Time Latitude Longitude Altitude Speed Heading
2026-05-05 10:32 41.79510 12.26130 14 ft 0 kts 114°
2026-05-05 11:04 41.79513 12.26121 14 ft 3 kts 113°
2026-05-05 11:04 41.79521 12.26096 14 ft 3 kts 108°
2026-05-05 11:04 41.79526 12.26071 16 ft 3 kts 96°
2026-05-05 11:04 41.79526 12.26045 16 ft 3 kts 60°
2026-05-05 11:05 41.79519 12.26033 17 ft 0 kts 30°
2026-05-05 11:10 41.79521 12.26035 15 ft 2 kts 30°
2026-05-05 11:10 41.79549 12.26054 14 ft 7 kts 26°
2026-05-05 11:10 41.79593 12.26083 14 ft 8 kts 25°
2026-05-05 11:10 41.79649 12.26119 15 ft 10 kts 25°
2026-05-05 11:11 41.79692 12.26145 15 ft 5 kts 19°
2026-05-05 11:11 41.79698 12.26147 16 ft 0 kts 14°
2026-05-05 11:14 41.79703 12.26148 16 ft 5 kts 11°
2026-05-05 11:14 41.79766 12.26135 14 ft 11 kts
2026-05-05 11:14 41.79840 12.26175 15 ft 12 kts 24°
2026-05-05 11:14 41.79919 12.26223 14 ft 13 kts 25°
2026-05-05 11:15 41.80005 12.26276 14 ft 14 kts 25°
2026-05-05 11:15 41.80097 12.26334 14 ft 17 kts 25°
2026-05-05 11:15 41.80213 12.26403 15 ft 19 kts 20°
2026-05-05 11:15 41.80342 12.26374 14 ft 19 kts 341°
2026-05-05 11:16 41.80440 12.26442 15 ft 18 kts 67°
2026-05-05 11:16 41.80484 12.26601 16 ft 19 kts 69°
2026-05-05 11:16 41.80530 12.26770 14 ft 21 kts 70°
2026-05-05 11:16 41.80581 12.26956 13 ft 22 kts 70°
2026-05-05 11:17 41.80699 12.27052 13 ft 22 kts
2026-05-05 11:17 41.80848 12.27021 14 ft 22 kts 340°
2026-05-05 11:17 41.80946 12.26972 14 ft 7 kts 338°
2026-05-05 11:17 41.80954 12.26912 13 ft 7 kts 253°
2026-05-05 11:18 41.80933 12.26838 15 ft 16 kts 250°
2026-05-05 11:18 41.80790 12.26322 20 ft 99 kts 250°
2026-05-05 11:18 41.80473 12.25167 19 ft 162 kts 250°
2026-05-05 11:18 41.80089 12.23706 656 ft 164 kts 244°
2026-05-05 11:19 41.79687 12.22276 1481 ft 170 kts 242°
2026-05-05 11:19 41.79297 12.20644 2059 ft 200 kts 259°
2026-05-05 11:19 41.79229 12.18671 2750 ft 223 kts 264°
2026-05-05 11:19 41.79171 12.16479 3389 ft 248 kts 264°
2026-05-05 11:20 41.79112 12.14127 4328 ft 255 kts 265°
2026-05-05 11:20 41.79055 12.11732 5374 ft 258 kts 266°
2026-05-05 11:20 41.79000 12.09322 6452 ft 260 kts 268°
2026-05-05 11:20 41.78980 12.06883 7465 ft 261 kts 269°
2026-05-05 11:21 41.78981 12.04434 8452 ft 264 kts 269°
2026-05-05 11:21 41.78989 12.01980 9430 ft 267 kts 269°
2026-05-05 11:21 41.78995 11.99474 10346 ft 272 kts 269°
2026-05-05 11:21 41.78997 11.96832 10750 ft 295 kts 268°
2026-05-05 11:22 41.78993 11.94035 11418 ft 304 kts 268°
2026-05-05 11:22 41.78988 11.91171 12236 ft 309 kts 268°
2026-05-05 11:22 41.78983 11.88268 13069 ft 314 kts 268°
2026-05-05 11:22 41.79142 11.85323 13884 ft 320 kts 278°
2026-05-05 11:23 41.79805 11.82446 14603 ft 328 kts 291°
2026-05-05 11:23 41.80890 11.79848 15337 ft 333 kts 298°
2026-05-05 11:23 41.82089 11.77179 16112 ft 336 kts 297°
2026-05-05 11:23 41.83295 11.74477 16871 ft 339 kts 297°
2026-05-05 11:24 41.84503 11.71747 17603 ft 342 kts 297°
2026-05-05 11:24 41.85722 11.68983 18315 ft 346 kts 297°
2026-05-05 11:24 41.86950 11.66191 18938 ft 349 kts 297°
2026-05-05 11:24 41.88189 11.63369 19581 ft 352 kts 297°
2026-05-05 11:25 41.89439 11.60526 20230 ft 355 kts 297°
2026-05-05 11:25 41.90713 11.57673 20865 ft 358 kts 298°
2026-05-05 11:25 41.92050 11.54845 21504 ft 361 kts 300°
2026-05-05 11:25 41.93435 11.52020 22138 ft 363 kts 300°
2026-05-05 11:26 41.94842 11.49184 22776 ft 366 kts 300°
2026-05-05 11:26 41.96255 11.46323 23408 ft 369 kts 300°
2026-05-05 11:26 41.97672 11.43433 23954 ft 372 kts 300°
2026-05-05 11:26 41.99091 11.40516 24474 ft 374 kts 300°
2026-05-05 11:27 42.00510 11.37578 24976 ft 376 kts 299°
2026-05-05 11:27 42.01937 11.34615 25472 ft 379 kts 299°
2026-05-05 11:27 42.03375 11.31626 25956 ft 381 kts 299°
2026-05-05 11:27 42.04819 11.28615 26434 ft 383 kts 299°
2026-05-05 11:28 42.06267 11.25595 26862 ft 383 kts 298°
2026-05-05 11:28 42.07675 11.22663 26979 ft 379 kts 298°
2026-05-05 11:28 42.09135 11.19609 27288 ft 386 kts 298°
2026-05-05 11:28 42.10575 11.16598 27700 ft 389 kts 298°
2026-05-05 11:29 42.12049 11.13524 28142 ft 392 kts 298°
2026-05-05 11:29 42.13534 11.10428 28589 ft 395 kts 298°
2026-05-05 11:29 42.15047 11.07269 29037 ft 397 kts 298°
2026-05-05 11:29 42.16525 11.04172 29466 ft 400 kts 298°
2026-05-05 11:30 42.18053 11.00968 29894 ft 402 kts 298°
2026-05-05 11:30 42.19569 10.97789 30285 ft 405 kts 298°
2026-05-05 11:30 42.21075 10.94623 30633 ft 407 kts 298°
2026-05-05 11:30 42.22606 10.91398 30982 ft 409 kts 298°
2026-05-05 11:31 42.24141 10.88157 31324 ft 411 kts 298°
2026-05-05 11:31 42.25688 10.84890 31669 ft 413 kts 298°
2026-05-05 11:31 42.27356 10.81706 32055 ft 418 kts 305°
2026-05-05 11:31 42.29433 10.78921 32537 ft 424 kts 315°
2026-05-05 11:32 42.31885 10.76658 33014 ft 431 kts 325°
2026-05-05 11:32 42.34652 10.75027 33486 ft 438 kts 334°
2026-05-05 11:32 42.37524 10.73667 33957 ft 437 kts 334°
2026-05-05 11:32 42.40388 10.72299 34374 ft 436 kts 334°
2026-05-05 11:33 42.43245 10.70923 34760 ft 435 kts 334°
2026-05-05 11:33 42.46091 10.69543 35130 ft 434 kts 334°
2026-05-05 11:33 42.48937 10.68157 35489 ft 434 kts 334°
2026-05-05 11:33 42.51778 10.66774 35839 ft 434 kts 334°
2026-05-05 11:34 42.54619 10.65397 35983 ft 433 kts 334°
2026-05-05 11:34 42.60186 10.62711 36003 ft 420 kts 334°
2026-05-05 11:35 42.65673 10.60042 36003 ft 418 kts 334°
2026-05-05 11:35 42.71152 10.57366 36004 ft 418 kts 334°
2026-05-05 11:36 42.76636 10.54694 36002 ft 419 kts 334°
2026-05-05 11:36 42.82131 10.52012 36002 ft 419 kts 334°
2026-05-05 11:37 42.87617 10.49321 36001 ft 419 kts 334°
2026-05-05 11:37 42.93078 10.46636 36000 ft 419 kts 334°
2026-05-05 11:38 42.98568 10.43934 36001 ft 419 kts 334°
2026-05-05 11:38 43.04060 10.41230 36002 ft 420 kts 334°
2026-05-05 11:39 43.09551 10.38516 36008 ft 420 kts 334°
2026-05-05 11:39 43.15051 10.35799 36010 ft 420 kts 333°
2026-05-05 11:40 43.20047 10.31989 36011 ft 405 kts 315°
2026-05-05 11:40 43.24471 10.27186 36001 ft 405 kts 315°
2026-05-05 11:41 43.28872 10.22431 36008 ft 406 kts 315°
2026-05-05 11:41 43.33304 10.17638 36002 ft 405 kts 315°
2026-05-05 11:42 43.36983 10.13641 36006 ft 405 kts 315°
2026-05-05 11:42 43.41405 10.08825 36004 ft 405 kts 315°
2026-05-05 11:43 43.45821 10.04007 36002 ft 405 kts 315°
2026-05-05 11:43 43.50236 9.99168 36005 ft 405 kts 315°
2026-05-05 11:44 43.54646 9.94331 36000 ft 405 kts 315°
2026-05-05 11:44 43.59064 9.89484 36001 ft 406 kts 315°
2026-05-05 11:45 43.63480 9.84630 35999 ft 406 kts 315°
2026-05-05 11:45 43.67889 9.79764 35996 ft 406 kts 315°
2026-05-05 11:46 43.72306 9.74890 35993 ft 406 kts 314°
2026-05-05 11:46 43.76725 9.70004 35988 ft 407 kts 314°
2026-05-05 11:47 43.81140 9.65105 35987 ft 407 kts 314°
2026-05-05 11:47 43.85539 9.60225 35986 ft 407 kts 314°
2026-05-05 11:48 43.92171 9.52842 35981 ft 408 kts 314°
2026-05-05 11:48 43.96598 9.47899 35983 ft 409 kts 314°
2026-05-05 11:49 44.01031 9.42947 35981 ft 409 kts 314°
2026-05-05 11:49 44.05466 9.37986 35977 ft 410 kts 314°
2026-05-05 11:50 44.09908 9.32995 35974 ft 410 kts 314°
2026-05-05 11:50 44.14349 9.27996 35978 ft 411 kts 314°
2026-05-05 11:51 44.18794 9.22986 35979 ft 411 kts 314°
2026-05-05 11:51 44.23242 9.17968 35979 ft 412 kts 314°
2026-05-05 11:52 44.27688 9.12934 35982 ft 412 kts 314°
2026-05-05 11:52 44.32134 9.07886 35985 ft 412 kts 314°
2026-05-05 11:53 44.36580 9.02828 35988 ft 412 kts 314°
2026-05-05 11:53 44.40999 8.97799 35990 ft 412 kts 314°
2026-05-05 11:54 44.45447 8.92729 35994 ft 413 kts 314°
2026-05-05 11:54 44.49903 8.87644 35989 ft 412 kts 314°
2026-05-05 11:55 44.54350 8.82539 35996 ft 412 kts 314°
2026-05-05 11:55 44.58761 8.77479 35994 ft 412 kts 314°
2026-05-05 11:56 44.63198 8.72380 36000 ft 412 kts 314°
2026-05-05 11:56 44.67634 8.67268 36004 ft 412 kts 314°
2026-05-05 11:57 44.72062 8.62147 36007 ft 412 kts 313°
2026-05-05 11:57 44.76496 8.57023 36009 ft 413 kts 313°
2026-05-05 11:58 44.80935 8.51880 36009 ft 413 kts 313°
2026-05-05 11:58 44.85362 8.46728 36009 ft 413 kts 313°
2026-05-05 11:59 44.89796 8.41563 36006 ft 413 kts 313°
2026-05-05 11:59 44.94204 8.36420 36003 ft 414 kts 313°
2026-05-05 12:00 44.98659 8.31212 36002 ft 414 kts 313°
2026-05-05 12:00 45.03090 8.26029 35998 ft 414 kts 313°
2026-05-05 12:01 45.07530 8.20822 36000 ft 414 kts 313°
2026-05-05 12:01 45.11942 8.15620 36003 ft 414 kts 313°
2026-05-05 12:02 45.16377 8.10385 36010 ft 415 kts 313°
2026-05-05 12:02 45.20814 8.05148 36014 ft 415 kts 313°
2026-05-05 12:03 45.25251 7.99889 36017 ft 415 kts 312°
2026-05-05 12:03 45.29690 7.94621 36023 ft 416 kts 312°
2026-05-05 12:04 45.34126 7.89348 36024 ft 416 kts 312°
2026-05-05 12:04 45.38548 7.84086 36016 ft 416 kts 312°
2026-05-05 12:05 45.42997 7.78780 36020 ft 416 kts 312°
2026-05-05 12:05 45.47426 7.73482 36014 ft 416 kts 312°
2026-05-05 12:06 45.51851 7.68166 36011 ft 416 kts 312°
2026-05-05 12:06 45.56273 7.62857 36003 ft 416 kts 312°
2026-05-05 12:07 45.60699 7.57524 35998 ft 416 kts 312°
2026-05-05 12:07 45.65124 7.52180 36000 ft 417 kts 312°
2026-05-05 12:08 45.69556 7.46828 35997 ft 417 kts 312°
2026-05-05 12:08 45.73985 7.41461 36000 ft 418 kts 312°
2026-05-05 12:09 45.78423 7.36057 36006 ft 419 kts 312°
2026-05-05 12:09 45.83120 7.31018 36001 ft 423 kts 318°
2026-05-05 12:10 45.87930 7.26145 35983 ft 423 kts 318°
2026-05-05 12:10 45.92748 7.21256 35974 ft 424 kts 318°
2026-05-05 12:11 45.97561 7.16354 35912 ft 424 kts 318°
2026-05-05 12:11 46.02376 7.11431 35899 ft 425 kts 318°
2026-05-05 12:12 46.07190 7.06488 35893 ft 425 kts 318°
2026-05-05 12:12 46.12008 7.01527 35897 ft 425 kts 318°
2026-05-05 12:13 46.16817 6.96562 35899 ft 425 kts 319°
2026-05-05 12:13 46.21609 6.91598 35908 ft 425 kts 319°
2026-05-05 12:14 46.26441 6.86613 35911 ft 426 kts 319°
2026-05-05 12:14 46.31263 6.81632 35916 ft 426 kts 319°
2026-05-05 12:15 46.36076 6.76628 35905 ft 426 kts 319°
2026-05-05 12:15 46.40880 6.71604 35908 ft 426 kts 319°
2026-05-05 12:16 46.45823 6.66917 35903 ft 433 kts 329°
2026-05-05 12:16 46.51252 6.63113 35902 ft 433 kts 329°
2026-05-05 12:17 46.56685 6.59297 35904 ft 434 kts 329°
2026-05-05 12:17 46.62191 6.55649 35909 ft 438 kts 340°
2026-05-05 12:18 46.65188 6.54954 35904 ft 444 kts 355°
2026-05-05 12:18 46.68279 6.54791 35903 ft 444 kts 355°
2026-05-05 12:18 46.74465 6.54528 35902 ft 445 kts 356°
2026-05-05 12:19 46.80661 6.54283 35899 ft 445 kts 356°
2026-05-05 12:19 46.86856 6.54026 35900 ft 445 kts 356°
2026-05-05 12:20 46.93058 6.53761 35890 ft 445 kts 356°
2026-05-05 12:20 46.99243 6.53485 35888 ft 445 kts 356°
2026-05-05 12:21 47.05432 6.53201 35888 ft 445 kts 356°
2026-05-05 12:21 47.11594 6.52922 35887 ft 445 kts 356°
2026-05-05 12:22 47.17786 6.52652 35886 ft 445 kts 356°
2026-05-05 12:22 47.23979 6.52379 35886 ft 445 kts 357°
2026-05-05 12:23 47.30173 6.52111 35877 ft 445 kts 357°
2026-05-05 12:23 47.36332 6.51835 35870 ft 445 kts 357°
2026-05-05 12:24 47.42519 6.51570 35867 ft 445 kts 357°
2026-05-05 12:24 47.48718 6.51304 35866 ft 445 kts 357°
2026-05-05 12:25 47.54901 6.51029 35870 ft 445 kts 357°
2026-05-05 12:25 47.61091 6.50752 35869 ft 444 kts 357°
2026-05-05 12:26 47.67268 6.50475 35865 ft 444 kts 357°
2026-05-05 12:26 47.73445 6.50183 35862 ft 444 kts 357°
2026-05-05 12:27 47.79622 6.49888 35868 ft 444 kts 357°
2026-05-05 12:27 47.85801 6.49605 35873 ft 444 kts 357°
2026-05-05 12:28 47.91924 6.49326 35876 ft 443 kts 357°
2026-05-05 12:28 47.98089 6.49048 35879 ft 443 kts 358°
2026-05-05 12:29 48.03255 6.48812 35878 ft 442 kts 358°
2026-05-05 12:29 48.09381 6.48533 35877 ft 441 kts 358°
2026-05-05 12:30 48.15488 6.47776 35869 ft 440 kts 350°
2026-05-05 12:30 48.21536 6.46334 35868 ft 440 kts 349°
2026-05-05 12:31 48.27586 6.44868 35868 ft 441 kts 350°
2026-05-05 12:31 48.33654 6.43410 35881 ft 442 kts 350°
2026-05-05 12:32 48.39709 6.41943 35866 ft 440 kts 350°
2026-05-05 12:32 48.45707 6.40483 35864 ft 440 kts 350°
2026-05-05 12:33 48.51754 6.39016 35861 ft 440 kts 350°
2026-05-05 12:33 48.57803 6.37553 35852 ft 440 kts 350°
2026-05-05 12:34 48.63867 6.36086 35851 ft 441 kts 350°
2026-05-05 12:34 48.69921 6.34609 35852 ft 441 kts 350°
2026-05-05 12:35 48.75989 6.33120 35849 ft 442 kts 350°
2026-05-05 12:35 48.82018 6.31634 35855 ft 442 kts 350°
2026-05-05 12:36 48.88107 6.30131 35849 ft 442 kts 350°
2026-05-05 12:36 48.94195 6.28620 35854 ft 443 kts 350°
2026-05-05 12:37 49.00284 6.27108 35846 ft 443 kts 350°
2026-05-05 12:37 49.06379 6.25599 35847 ft 444 kts 350°
2026-05-05 12:38 49.12437 6.24093 35849 ft 444 kts 350°
2026-05-05 12:38 49.18544 6.22572 35854 ft 445 kts 350°
2026-05-05 12:39 49.24649 6.21041 35852 ft 445 kts 350°
2026-05-05 12:39 49.30769 6.19500 35854 ft 445 kts 350°
2026-05-05 12:40 49.36881 6.17959 35853 ft 445 kts 350°
2026-05-05 12:40 49.43000 6.16434 35854 ft 446 kts 350°
2026-05-05 12:41 49.49126 6.14898 35856 ft 446 kts 349°
2026-05-05 12:41 49.55220 6.13350 35860 ft 446 kts 349°
2026-05-05 12:42 49.61347 6.11788 35860 ft 446 kts 349°
2026-05-05 12:42 49.67490 6.10207 35580 ft 448 kts 349°
2026-05-05 12:43 49.70579 6.09415 35324 ft 448 kts 349°
2026-05-05 12:43 49.73626 6.08640 35081 ft 449 kts 349°
2026-05-05 12:43 49.76717 6.07855 34835 ft 451 kts 349°
2026-05-05 12:43 49.79821 6.07062 34452 ft 449 kts 349°
2026-05-05 12:44 49.82893 6.06275 33893 ft 449 kts 349°
2026-05-05 12:44 49.85979 6.05488 33283 ft 449 kts 349°
2026-05-05 12:44 49.89064 6.04702 32723 ft 447 kts 349°
2026-05-05 12:44 49.92088 6.03929 32170 ft 444 kts 349°
2026-05-05 12:45 49.95142 6.03145 31626 ft 442 kts 349°
2026-05-05 12:45 49.98172 6.02363 31086 ft 440 kts 349°
2026-05-05 12:45 50.01181 6.01584 30561 ft 437 kts 349°
2026-05-05 12:45 50.04177 6.00807 30032 ft 435 kts 349°
2026-05-05 12:46 50.07150 6.00032 29475 ft 431 kts 349°
2026-05-05 12:46 50.10098 5.99262 28978 ft 427 kts 349°
2026-05-05 12:46 50.13015 5.98502 28492 ft 422 kts 349°
2026-05-05 12:46 50.15896 5.97755 28003 ft 418 kts 349°
2026-05-05 12:47 50.18723 5.97022 27544 ft 415 kts 349°
2026-05-05 12:47 50.21563 5.96281 27072 ft 412 kts 349°
2026-05-05 12:47 50.24382 5.95541 26611 ft 409 kts 349°
2026-05-05 12:47 50.27188 5.94805 26146 ft 407 kts 350°
2026-05-05 12:48 50.29978 5.94077 25671 ft 406 kts 350°
2026-05-05 12:48 50.32761 5.93349 25191 ft 404 kts 350°
2026-05-05 12:48 50.35528 5.92625 24692 ft 403 kts 350°
2026-05-05 12:48 50.38285 5.91905 24194 ft 401 kts 350°
2026-05-05 12:49 50.41042 5.91185 23678 ft 401 kts 350°
2026-05-05 12:49 50.43784 5.90468 23113 ft 396 kts 350°
2026-05-05 12:49 50.46428 5.89772 22617 ft 384 kts 350°
2026-05-05 12:49 50.49019 5.89087 22151 ft 374 kts 350°
2026-05-05 12:50 50.51598 5.88404 21659 ft 372 kts 350°
2026-05-05 12:50 50.54076 5.87743 21209 ft 370 kts 350°
2026-05-05 12:50 50.56654 5.87054 20741 ft 368 kts 350°
2026-05-05 12:50 50.59174 5.86354 20270 ft 366 kts 347°
2026-05-05 12:51 50.61520 5.84893 19829 ft 362 kts 328°
2026-05-05 12:51 50.63443 5.82390 19375 ft 358 kts 309°
2026-05-05 12:51 50.64768 5.79115 18894 ft 354 kts 291°
2026-05-05 12:51 50.65398 5.75408 18409 ft 351 kts 274°
2026-05-05 12:52 50.65599 5.71573 17884 ft 351 kts 272°
2026-05-05 12:52 50.65789 5.67736 17323 ft 351 kts 272°
2026-05-05 12:52 50.65979 5.63898 16768 ft 351 kts 273°
2026-05-05 12:52 50.66166 5.60067 16233 ft 351 kts 273°
2026-05-05 12:53 50.66355 5.56241 15689 ft 346 kts 273°
2026-05-05 12:53 50.66540 5.52550 15171 ft 336 kts 273°
2026-05-05 12:53 50.66721 5.48916 14662 ft 329 kts 273°
2026-05-05 12:53 50.66899 5.45306 14162 ft 331 kts 273°
2026-05-05 12:54 50.67244 5.38148 13087 ft 320 kts 273°
2026-05-05 12:54 50.67407 5.34684 12544 ft 316 kts 273°
2026-05-05 12:54 50.67568 5.31197 11999 ft 319 kts 274°
2026-05-05 12:55 50.67729 5.27726 11471 ft 321 kts 274°
2026-05-05 12:55 50.67894 5.24226 10941 ft 317 kts 274°
2026-05-05 12:55 50.68055 5.20806 10420 ft 309 kts 274°
2026-05-05 12:55 50.68210 5.17465 9919 ft 303 kts 274°
2026-05-05 12:56 50.68362 5.14182 9372 ft 298 kts 274°
2026-05-05 12:56 50.68507 5.10951 8818 ft 293 kts 274°
2026-05-05 12:56 50.68650 5.07736 8284 ft 296 kts 274°
2026-05-05 12:56 50.68796 5.04462 7745 ft 298 kts 274°
2026-05-05 12:57 50.68942 5.01178 7221 ft 300 kts 274°
2026-05-05 12:57 50.69085 4.97929 6808 ft 299 kts 274°
2026-05-05 12:57 50.69225 4.94714 6499 ft 287 kts 274°
2026-05-05 12:57 50.69359 4.91615 6209 ft 281 kts 274°
2026-05-05 12:58 50.69491 4.88604 5901 ft 271 kts 274°
2026-05-05 12:58 50.69618 4.85660 5598 ft 268 kts 274°
2026-05-05 12:58 50.69744 4.82736 5288 ft 266 kts 274°
2026-05-05 12:58 50.69871 4.79822 4996 ft 265 kts 274°
2026-05-05 12:59 50.69997 4.76931 4696 ft 261 kts 274°
2026-05-05 12:59 50.70115 4.74150 4381 ft 247 kts 274°
2026-05-05 12:59 50.70227 4.71482 4073 ft 241 kts 275°
2026-05-05 13:00 50.70449 4.66232 3465 ft 238 kts 275°
2026-05-05 13:00 50.70555 4.63686 3163 ft 227 kts 276°
2026-05-05 13:01 50.70835 4.56754 2393 ft 201 kts 276°
2026-05-05 13:01 50.70924 4.54586 2132 ft 195 kts 276°
2026-05-05 13:01 50.71006 4.52515 2007 ft 182 kts 277°
2026-05-05 13:01 50.71082 4.50570 2016 ft 175 kts 277°
2026-05-05 13:02 50.71157 4.48670 2005 ft 172 kts 277°
2026-05-05 13:02 50.71347 4.46839 2003 ft 167 kts 294°
2026-05-05 13:02 50.71906 4.45274 1996 ft 162 kts 314°
2026-05-05 13:02 50.72754 4.44141 2005 ft 158 kts 334°
2026-05-05 13:03 50.73767 4.43547 2059 ft 155 kts 352°
2026-05-05 13:03 50.74804 4.43521 2000 ft 140 kts 11°
2026-05-05 13:03 50.75696 4.43863 2008 ft 126 kts 16°
2026-05-05 13:03 50.76526 4.44197 2007 ft 120 kts 16°
2026-05-05 13:04 50.77332 4.44523 2007 ft 119 kts 16°
2026-05-05 13:04 50.78133 4.44847 2006 ft 119 kts 16°
2026-05-05 13:04 50.78938 4.45174 2011 ft 120 kts 16°
2026-05-05 13:04 50.79752 4.45504 1974 ft 121 kts 16°
2026-05-05 13:05 50.80559 4.45832 1870 ft 119 kts 16°
2026-05-05 13:05 50.81352 4.46154 1730 ft 120 kts 16°
2026-05-05 13:05 50.82159 4.46482 1597 ft 120 kts 15°
2026-05-05 13:05 50.82962 4.46804 1440 ft 119 kts 16°
2026-05-05 13:06 50.83761 4.47123 1314 ft 118 kts 16°
2026-05-05 13:06 50.84562 4.47450 1119 ft 118 kts 17°
2026-05-05 13:06 50.85348 4.47770 959 ft 117 kts 15°
2026-05-05 13:06 50.86141 4.48095 770 ft 117 kts 16°
2026-05-05 13:07 50.86931 4.48417 627 ft 119 kts 16°
2026-05-05 13:07 50.87719 4.48742 451 ft 116 kts 16°
2026-05-05 13:07 50.88506 4.49066 281 ft 117 kts 16°
2026-05-05 13:07 50.89262 4.49373 185 ft 100 kts 14°
2026-05-05 13:08 50.89796 4.49593 193 ft 55 kts 14°
2026-05-05 13:08 50.90069 4.49703 183 ft 35 kts 11°
2026-05-05 13:08 50.90286 4.49681 193 ft 23 kts 345°
2026-05-05 13:08 50.90427 4.49587 195 ft 22 kts 321°
2026-05-05 13:09 50.90552 4.49515 185 ft 19 kts 16°
2026-05-05 13:09 50.90680 4.49567 190 ft 18 kts 14°
2026-05-05 13:09 50.90764 4.49570 190 ft 12 kts 319°
2026-05-05 13:09 50.90756 4.49448 185 ft 13 kts 243°
2026-05-05 13:10 50.90719 4.49319 190 ft 13 kts 245°
2026-05-05 13:10 50.90679 4.49179 194 ft 15 kts 246°
2026-05-05 13:10 50.90635 4.49026 190 ft 16 kts 245°
2026-05-05 13:10 50.90588 4.48863 195 ft 17 kts 244°
2026-05-05 13:11 50.90538 4.48690 192 ft 18 kts 246°
2026-05-05 13:11 50.90485 4.48510 188 ft 19 kts 246°
2026-05-05 13:11 50.90425 4.48300 188 ft 23 kts 245°
2026-05-05 13:11 50.90364 4.48087 191 ft 20 kts 245°
2026-05-05 13:12 50.90308 4.47896 191 ft 18 kts 245°
2026-05-05 13:12 50.90265 4.47853 185 ft 5 kts 169°
2026-05-05 13:12 50.90230 4.47876 187 ft 3 kts 155°
2026-05-05 13:12 50.90217 4.47885 190 ft 0 kts 155°